Location: Berlin
(52.5171°N, 13.3759°E)
Time: 09:23:40
(UTC+01:00)

Amateur Radio Satellites - All Passes

Search period start: 21 November 2017 08:53
Search period end: 22 November 2017 08:53
Location: Berlin, 52.5171°N, 13.3759°E

Satellite Date Start Highest point End Downlink Frequencies (MHz)
Time Altitude Azimuth
UNISAT 6 21 Nov 08:53:49 08:58:24 89° 74° (ENE) 09:02:53 437.425
AIST 2D 21 Nov 08:57:37 08:59:04 12° 58° (ENE) 09:00:32 435.315
BEESAT 2 21 Nov 08:58:03 09:00:38 16° 12° (NNE) 09:03:13 435.950
TIGRISAT 21 Nov 08:58:16 09:02:50 90° 246° (WSW) 09:07:19 435.000
DELFI C3 21 Nov 09:07:59 09:11:27 27° 94° (E) 09:14:53 145.870
Oscar 11 21 Nov 09:08:15 09:12:36 78° 288° (WNW) 09:16:56 .
XW-2A 21 Nov 09:18:11 09:20:31 18° 298° (WNW) 09:22:51 145.665 - 145.685
BEESAT 3 21 Nov 09:24:55 09:28:23 27° 30° (NNE) 09:31:49 437.485
QB50P2 21 Nov 09:25:54 09:28:16 15° 55° (NE) 09:30:40 145.880/145.840
ZACube-1 21 Nov 09:36:58 09:40:30 28° 296° (WNW) 09:44:02 437.345
AO-85 21 Nov 09:42:31 09:45:39 19° 15° (NNE) 09:48:58 145.980
UWE-3 21 Nov 09:46:56 09:49:20 15° 304° (WNW) 09:51:45 435.000/436.395/437.385
AO-7 21 Nov 09:55:56 09:58:21 12° 8° (N) 10:00:46 .
PCSat 21 Nov 09:58:32 10:03:20 33° 246° (WSW) 10:08:07 145.827
PRISM 21 Nov 09:58:34 10:02:37 53° 259° (W) 10:06:43 437.425
FO-29 21 Nov 10:05:16 10:08:53 14° 284° (WNW) 10:12:40 435.910
AAUSAT CUBESAT 2 21 Nov 10:11:46 10:13:07 11° 307° (NW) 10:14:28 437.432
DUCHIFAT 1 21 Nov 10:14:27 10:18:01 27° 63° (ENE) 10:21:33 145.980
EO-88 21 Nov 10:15:42 10:19:22 71° 103° (ESE) 10:23:00 145.990 - 145.960
Max Valier Satellite 21 Nov 10:16:48 10:20:29 81° 287° (WNW) 10:24:10 145.860
HO-68 21 Nov 10:18:08 10:22:42 18° 320° (NW) 10:27:15 435.675
ESTCUBE 1 21 Nov 10:19:29 10:21:23 12° 85° (E) 10:23:16 437.505/2401.250
EO-79 21 Nov 10:21:03 10:24:58 37° 66° (ENE) 10:28:53 145.935-145.965
NANOSAT C BR1 21 Nov 10:24:29 10:28:22 36° 66° (ENE) 10:32:15 145.865
AIST 2D 21 Nov 10:28:17 10:31:44 77° 258° (WSW) 10:35:14 435.315
AO-73 21 Nov 10:29:34 10:31:16 12° 306° (NW) 10:32:58 145.935
UNISAT 6 21 Nov 10:33:26 10:35:44 14° 273° (W) 10:38:00 437.425
BEESAT 2 21 Nov 10:35:40 10:39:26 35° 34° (NE) 10:43:10 435.950
POLYITAN 1 21 Nov 10:36:04 10:40:11 51° 69° (ENE) 10:44:17 437.675
TIGRISAT 21 Nov 10:37:55 10:40:09 13° 274° (W) 10:42:22 435.000
LO-87 21 Nov 10:41:21 10:44:06 21° 93° (E) 10:46:50 145.935 - 145.965
DELFI C3 21 Nov 10:42:35 10:46:16 36° 293° (WNW) 10:49:56 145.870
Oscar 11 21 Nov 10:45:59 10:48:03 13° 306° (NW) 10:50:05 .
Oscar 19 21 Nov 10:51:31 10:54:45 17° 52° (NE) 10:57:59 437.125/150
QB50P2 21 Nov 10:59:13 11:03:28 90° 252° (WSW) 11:07:45 145.880/145.840
BEESAT 3 21 Nov 11:02:18 11:06:15 66° 232° (SW) 11:10:08 437.485
BUGSAT 1 21 Nov 11:07:51 11:11:20 26° 63° (ENE) 11:14:48 437.445
Gurwin Techsat 1B 21 Nov 11:14:37 11:18:23 20° 53° (NE) 11:22:10 435.225
AO-85 21 Nov 11:22:47 11:27:04 44° 37° (NE) 11:31:42 145.980
SPROUT 21 Nov 11:38:47 11:41:46 18° 90° (E) 11:44:45 437.525
AO-7 21 Nov 11:42:20 11:48:05 21° 34° (NE) 11:53:51 .
DUCHIFAT 1 21 Nov 11:49:31 11:53:31 41° 262° (W) 11:57:32 145.980
EO-88 21 Nov 11:50:33 11:52:32 14° 302° (WNW) 11:54:31 145.990 - 145.960
Max Valier Satellite 21 Nov 11:52:45 11:53:40 11° 304° (NW) 11:54:36 145.860
ESTCUBE 1 21 Nov 11:54:21 11:58:55 83° 103° (ESE) 12:03:28 437.505/2401.250
EO-79 21 Nov 11:57:05 12:00:48 29° 265° (W) 12:04:32 145.935-145.965
NANOSAT C BR1 21 Nov 12:00:24 12:04:07 30° 265° (W) 12:07:52 145.865
POLYITAN 1 21 Nov 12:12:57 12:16:14 21° 268° (W) 12:19:31 437.675
BEESAT 2 21 Nov 12:13:23 12:17:16 45° 235° (SW) 12:21:06 435.950
LO-87 21 Nov 12:14:21 12:17:39 37° 291° (WNW) 12:20:56 145.935 - 145.965
VELOX 1 21 Nov 12:15:47 12:19:36 27° 94° (E) 12:23:24 145.980
O/OREOS (USA 219) 21 Nov 12:16:59 12:18:20 11° 96° (E) 12:19:41 437.305
M-CUBED/EXP-1 PRIME 21 Nov 12:22:07 12:25:09 24° 54° (NE) 12:28:23 437.505
Oscar 19 21 Nov 12:28:12 12:33:20 80° 71° (ENE) 12:38:29 437.125/150
QB50P2 21 Nov 12:38:08 12:39:54 12° 274° (W) 12:41:41 145.880/145.840
BUGSAT 1 21 Nov 12:42:32 12:46:32 42° 261° (W) 12:50:31 437.445
ITAMSAT 1 21 Nov 12:44:30 12:47:06 14° 48° (NE) 12:49:42 435.822/435.867
Gurwin Techsat 1B 21 Nov 12:52:22 12:57:42 89° 250° (WSW) 13:03:04 435.225
DX 1 21 Nov 13:01:57 13:05:14 20° 91° (E) 13:08:30 434.975-435.025
AO-85 21 Nov 13:03:11 13:07:33 43° 236° (WSW) 13:12:13 145.980
SPROUT 21 Nov 13:13:51 13:18:04 60° 289° (WNW) 13:22:14 437.525
AO-7 21 Nov 13:31:15 13:39:17 57° 59° (ENE) 13:47:21 .
ESTCUBE 1 21 Nov 13:32:12 13:35:10 17° 304° (NW) 13:38:07 437.505/2401.250
UKube-1 21 Nov 13:43:49 13:47:43 31° 96° (E) 13:51:35 .
VELOX 1 21 Nov 13:51:57 13:56:13 43° 293° (WNW) 14:00:26 145.980
O/OREOS (USA 219) 21 Nov 13:52:18 13:56:54 73° 115° (ESE) 14:01:30 437.305
M-CUBED/EXP-1 PRIME 21 Nov 13:55:50 13:59:20 44° 255° (WSW) 14:03:08 437.505
50 SAT 21 Nov 14:03:01 14:06:17 88° 279° (W) 14:09:30 437.505
Oscar 19 21 Nov 14:09:49 14:13:17 18° 272° (W) 14:16:47 437.125/150
ITAMSAT 1 21 Nov 14:20:27 14:25:36 60° 68° (ENE) 14:30:46 435.822/435.867
Gurwin Techsat 1B 21 Nov 14:35:07 14:38:26 16° 274° (W) 14:41:45 435.225
DX 1 21 Nov 14:37:27 14:41:46 58° 291° (WNW) 14:46:04 434.975-435.025
BEESAT 21 Nov 14:37:49 14:41:19 20° 90° (E) 14:44:48 436.000
YUBILEINY 21 Nov 14:43:40 14:51:03 28° 55° (NE) 14:58:22 435.215
ITUPSAT 1 21 Nov 14:47:17 14:51:06 23° 92° (E) 14:54:54 437.325
SPROUT 21 Nov 14:52:14 14:53:05 11° 309° (NW) 14:53:57 437.525
DOVE 4 21 Nov 14:59:37 15:03:59 29° 60° (ENE) 15:08:29 437.250
MOZHAYETS 4 21 Nov 14:59:39 15:03:56 38° 97° (E) 15:08:12
NO-84 21 Nov 15:01:00 15:03:37 18° 133° (SE) 15:06:21 435.350 FM
CUBESAT XI-V 21 Nov 15:12:01 15:14:50 16° 87° (E) 15:17:39 437.345
UKube-1 21 Nov 15:19:48 15:23:47 36° 295° (WNW) 15:27:45 .
AO-7 21 Nov 15:24:28 15:32:18 45° 261° (W) 15:40:14 .
HO-68 21 Nov 15:32:25 15:36:45 17° 39° (NE) 15:41:06 435.675
O/OREOS (USA 219) 21 Nov 15:33:06 15:36:48 23° 317° (NW) 15:40:30 437.305
XW-2C 21 Nov 15:40:24 15:41:52 12° 56° (NE) 15:43:20 145.795 - 145.815
LilacSat-2 21 Nov 15:42:00 15:43:50 13° 57° (ENE) 15:45:40 437.200
XW-2F 21 Nov 15:50:30 15:52:27 14° 58° (ENE) 15:54:24 145.980 - 146.000
CUTE-I 21 Nov 15:53:53 15:58:02 23° 55° (NE) 16:02:12 437.470
ITAMSAT 1 21 Nov 16:01:09 16:05:27 25° 268° (W) 16:09:46 435.822/435.867
BEESAT 21 Nov 16:14:48 16:19:33 66° 290° (WNW) 16:24:15 436.000
DX 1 21 Nov 16:16:00 16:17:04 11° 310° (NW) 16:18:08 434.975-435.025
KAITUO 1B 21 Nov 16:17:24 16:20:06 19° 62° (ENE) 16:22:48 145.475/437.950
ITUPSAT 1 21 Nov 16:24:36 16:29:16 56° 292° (WNW) 16:33:55 437.325
XW-2D 21 Nov 16:31:38 16:35:02 34° 67° (ENE) 16:38:29 145.860 - 145.880
DOVE 4 21 Nov 16:36:20 16:41:21 56° 261° (W) 16:46:35 437.250
NO-84 21 Nov 16:36:31 16:40:22 68° 153° (SSE) 16:44:29 435.350 FM
MOZHAYETS 4 21 Nov 16:36:58 16:41:02 32° 296° (WNW) 16:45:05
YUBILEINY 21 Nov 16:40:17 16:49:13 89° 86° (E) 16:58:05 435.215
CUBEBUG 2 21 Nov 16:41:45 16:43:24 12° 53° (NE) 16:45:02 437.445
XW-2B 21 Nov 16:46:14 16:49:50 46° 70° (ENE) 16:53:28 145.730 - 145.750
CUBESAT XI-V 21 Nov 16:48:07 16:52:49 83° 287° (WNW) 16:57:31 437.345
KKS-1 21 Nov 16:51:19 16:55:17 30° 95° (E) 16:59:12 437.445
NUDT-PHONESAT 21 Nov 17:00:52 17:04:23 47° 70° (ENE) 17:07:56 437.300
XW-2C 21 Nov 17:11:41 17:15:26 88° 79° (E) 17:19:13 145.795 - 145.815
LilacSat-2 21 Nov 17:13:47 17:17:33 82° 255° (WSW) 17:21:22 437.200
STARS 21 Nov 17:15:32 17:19:03 23° 92° (E) 17:22:33 437.465
HO-68 21 Nov 17:16:06 17:23:01 53° 62° (ENE) 17:29:59 435.675
CUTE 1.7 + AOD 2 21 Nov 17:18:03 17:21:45 31° 64° (ENE) 17:25:28 437.475
XW-2F 21 Nov 17:22:20 17:26:03 76° 257° (WSW) 17:29:49 145.980 - 146.000
ZACube-1 21 Nov 17:29:15 17:30:06 11° 52° (NE) 17:30:57 437.345
CUTE-I 21 Nov 17:32:12 17:37:35 76° 256° (WSW) 17:43:00 437.470
UWE-3 21 Nov 17:36:30 17:39:42 20° 60° (ENE) 17:42:50 435.000/436.395/437.385
RS-15 21 Nov 17:39:23 17:49:36 33° 104° (ESE) 17:59:42 29.354- 29.394
SEEDS 21 Nov 17:48:06 17:51:56 37° 67° (ENE) 17:55:50 437.485
KAITUO 1B 21 Nov 17:50:14 17:53:47 47° 260° (W) 17:57:24 145.475/437.950
BEESAT 21 Nov 17:54:14 17:56:28 13° 310° (NW) 17:58:43 436.000
AAUSAT CUBESAT 2 21 Nov 17:55:11 17:58:26 23° 61° (ENE) 18:01:44 437.432
ITUPSAT 1 21 Nov 18:04:30 18:06:08 12° 312° (NW) 18:07:46 437.325
XW-2D 21 Nov 18:06:11 18:09:18 25° 266° (W) 18:12:27 145.860 - 145.880
NO-84 21 Nov 18:13:51 18:17:51 62° 354° (N) 18:22:03 435.350 FM
CUBEBUG 2 21 Nov 18:14:44 18:19:15 65° 72° (ENE) 18:23:39 437.445
AO-73 21 Nov 18:17:12 18:20:35 23° 62° (ENE) 18:23:55 145.935
XW-2A 21 Nov 18:21:08 18:24:13 36° 69° (ENE) 18:27:19 145.665 - 145.685
XW-2B 21 Nov 18:21:35 18:24:16 19° 269° (W) 18:26:58 145.730 - 145.750
CUBESAT XI-V 21 Nov 18:26:46 18:29:30 16° 306° (NW) 18:32:15 437.345
KKS-1 21 Nov 18:27:45 18:31:56 40° 295° (WNW) 18:36:05 437.445
Oscar 11 21 Nov 18:33:21 18:36:48 24° 61° (ENE) 18:40:15 .
NUDT-PHONESAT 21 Nov 18:35:59 18:38:30 17° 269° (W) 18:41:02 437.300
YUBILEINY 21 Nov 18:38:06 18:44:56 26° 284° (WNW) 18:51:45 435.215
XW-2C 21 Nov 18:49:38 18:50:13 10° 274° (W) 18:50:46 145.795 - 145.815
STARS 21 Nov 18:51:23 18:55:40 51° 292° (WNW) 18:59:55 437.465
CUTE 1.7 + AOD 2 21 Nov 18:53:39 18:57:32 35° 264° (W) 19:01:27 437.475
ZACube-1 21 Nov 19:01:20 19:05:35 62° 72° (ENE) 19:09:46 437.345
HO-68 21 Nov 19:04:11 19:10:57 42° 263° (W) 19:17:46 435.675
UWE-3 21 Nov 19:11:24 19:15:48 63° 258° (WSW) 19:20:05 435.000/436.395/437.385
CUTE-I 21 Nov 19:15:48 19:18:33 14° 276° (W) 19:21:18 437.470
FO-29 21 Nov 19:18:52 19:24:50 23° 83° (E) 19:30:37 435.910
STRAND 1 21 Nov 19:24:00 19:28:58 47° 99° (E) 19:33:53 437.568
SEEDS 21 Nov 19:24:06 19:27:43 28° 266° (W) 19:31:23 437.485
Max Valier Satellite 21 Nov 19:29:14 19:30:59 13° 58° (ENE) 19:32:45 145.860
AAUSAT CUBESAT 2 21 Nov 19:29:37 19:33:37 49° 261° (W) 19:37:41 437.432
RS-15 21 Nov 19:48:15 20:00:39 86° 130° (SE) 20:12:51 29.354- 29.394
NO-84 21 Nov 19:51:21 19:55:31 74° 16° (NNE) 19:59:48 435.350 FM
AO-73 21 Nov 19:52:25 19:56:35 49° 261° (W) 20:00:41 145.935
CUBEBUG 2 21 Nov 19:53:06 19:56:17 18° 270° (W) 19:59:24 437.445
XW-2A 21 Nov 19:54:38 19:57:04 19° 267° (W) 19:59:29 145.665 - 145.685
DELFI C3 21 Nov 19:58:22 20:01:59 34° 66° (ENE) 20:05:37 145.870
Oscar 11 21 Nov 20:08:31 20:12:41 49° 261° (W) 20:16:54 .
nSIGHT-1 21 Nov 20:27:29 20:27:52 10° 138° (SE) 20:28:15 .
O/OREOS (USA 219) 21 Nov 20:38:52 20:41:34 15° 34° (NE) 20:44:15 437.305
ZACube-1 21 Nov 20:39:19 20:42:15 18° 270° (W) 20:45:11 437.345
UNISAT 6 21 Nov 20:41:20 20:43:03 12° 85° (E) 20:44:45 437.425
TIGRISAT 21 Nov 20:45:36 20:47:20 12° 85° (E) 20:49:03 435.000
EO-88 21 Nov 20:58:19 21:01:56 72° 74° (ENE) 21:05:35 145.990 - 145.960
Max Valier Satellite 21 Nov 21:00:38 21:04:18 78° 257° (WSW) 21:07:58 145.860
FO-29 21 Nov 21:03:01 21:11:00 83° 105° (ESE) 21:18:36 435.910
STRAND 1 21 Nov 21:03:29 21:08:01 32° 299° (WNW) 21:12:31 437.568
ISS 21 Nov 21:10:13 21:12:30 18° 145° (SE) 21:14:48 437.550
LO-87 21 Nov 21:22:37 21:25:28 22° 64° (ENE) 21:28:20 145.935 - 145.965
ESTCUBE 1 21 Nov 21:23:45 21:27:19 24° 60° (ENE) 21:30:53 437.505/2401.250
NO-84 21 Nov 21:28:47 21:32:48 43° 215° (SW) 21:36:52 435.350 FM
DELFI C3 21 Nov 21:33:18 21:36:46 28° 266° (W) 21:40:15 145.870
PRISM 21 Nov 21:34:54 21:37:15 15° 88° (E) 21:39:36 437.425
nSIGHT-1 21 Nov 22:00:24 22:03:25 37° 157° (SSE) 22:06:26 .
RS-15 21 Nov 22:02:26 22:14:27 53° 339° (NNW) 22:26:08 29.354- 29.394
SO-50 21 Nov 22:05:55 22:10:13 48° 125° (SE) 22:14:35 436.795
UNISAT 6 21 Nov 22:16:08 22:20:29 89° 115° (ESE) 22:24:44 437.425
O/OREOS (USA 219) 21 Nov 22:17:25 22:21:58 60° 57° (ENE) 22:26:27 437.305
TIGRISAT 21 Nov 22:20:24 22:24:44 89° 142° (SE) 22:28:58 435.000
EO-88 21 Nov 22:34:37 22:36:03 12° 272° (W) 22:37:29 145.990 - 145.960
SPROUT 21 Nov 22:37:06 22:40:49 30° 64° (ENE) 22:44:34 437.525
QB50P2 21 Nov 22:41:16 22:41:24 10° 84° (E) 22:41:33 145.880/145.840
ISS 21 Nov 22:45:18 22:48:31 54° 163° (SSE) 22:51:44 437.550
FO-29 21 Nov 22:48:35 22:55:17 32° 307° (NW) 23:01:51 435.910
LO-87 21 Nov 22:55:19 22:58:42 37° 262° (W) 23:02:06 145.935 - 145.965
ESTCUBE 1 21 Nov 22:59:25 23:03:49 55° 260° (W) 23:08:15 437.505/2401.250
PCSat 21 Nov 23:05:16 23:07:51 14° 103° (ESE) 23:10:26 145.827
NO-84 21 Nov 23:08:14 23:09:19 11° 233° (SW) 23:10:25 435.350 FM
PRISM 21 Nov 23:08:51 23:13:03 75° 287° (WNW) 23:17:12 437.425
UKube-1 21 Nov 23:11:42 23:12:27 10° 50° (NE) 23:13:14 .
VELOX 1 21 Nov 23:18:05 23:22:22 49° 68° (ENE) 23:26:41 145.980
AIST 2D 21 Nov 23:20:11 23:23:41 56° 101° (E) 23:27:10 435.315
DUCHIFAT 1 21 Nov 23:27:43 23:30:52 20° 91° (E) 23:34:01 145.980
EO-79 21 Nov 23:35:12 23:38:55 30° 95° (E) 23:42:37 145.935-145.965
nSIGHT-1 21 Nov 23:36:15 23:39:28 76° 176° (S) 23:42:40 .
NANOSAT C BR1 21 Nov 23:38:11 23:41:52 28° 95° (E) 23:45:30 145.865
SO-50 21 Nov 23:46:34 23:50:48 39° 326° (NNW) 23:55:06 436.795
POLYITAN 1 21 Nov 23:50:28 23:54:28 41° 98° (E) 23:58:26 437.675
UNISAT 6 21 Nov 23:54:09 23:56:34 15° 305° (NW) 23:58:59 437.425
O/OREOS (USA 219) 21 Nov 23:57:31 00:00:59 22° 257° (WSW) 00:04:26 437.305
TIGRISAT 21 Nov 23:58:24 00:00:48 15° 305° (NW) 00:03:10 435.000
DX 1 22 Nov 00:02:30 00:06:31 37° 65° (ENE) 00:10:34 434.975-435.025
SPROUT 22 Nov 00:12:37 00:16:38 38° 263° (W) 00:20:39 437.525
QB50P2 22 Nov 00:13:44 00:17:58 76° 105° (ESE) 00:22:09 145.880/145.840
RS-15 22 Nov 00:18:05 00:29:52 49° 12° (NNE) 00:41:06 29.354- 29.394
BUGSAT 1 22 Nov 00:18:49 00:21:39 18° 91° (E) 00:24:26 437.445
ISS 22 Nov 00:21:38 00:24:54 77° 183° (S) 00:28:10 437.550
ITUPSAT 1 22 Nov 00:25:45 00:27:02 11° 47° (NE) 00:28:20 437.325
MOZHAYETS 4 22 Nov 00:32:49 00:34:59 13° 52° (NE) 00:37:09
Oscar 19 22 Nov 00:34:35 00:38:06 18° 88° (E) 00:41:38 437.125/150
50 SAT 22 Nov 00:35:03 00:38:17 75° 73° (ENE) 00:41:33 437.505
FO-29 22 Nov 00:35:33 00:38:01 12° 330° (NNW) 00:40:29 435.910
UKube-1 22 Nov 00:43:21 00:47:35 56° 69° (ENE) 00:51:51 .
PCSat 22 Nov 00:44:54 00:50:16 68° 124° (SE) 00:55:41 145.827
PRISM 22 Nov 00:45:49 00:47:35 13° 307° (NW) 00:49:22 437.425
AIST 2D 22 Nov 00:54:19 00:56:29 16° 299° (WNW) 00:58:39 435.315
VELOX 1 22 Nov 00:55:25 00:59:03 24° 267° (W) 01:02:43 145.980
DUCHIFAT 1 22 Nov 01:02:46 01:06:50 51° 291° (WNW) 01:10:52 145.980
Gurwin Techsat 1B 22 Nov 01:03:04 01:07:19 24° 91° (E) 01:11:33 435.225
EO-79 22 Nov 01:10:53 01:14:44 36° 294° (WNW) 01:18:34 145.935-145.965
nSIGHT-1 22 Nov 01:12:27 01:15:37 55° 196° (SSW) 01:18:45 .
NANOSAT C BR1 22 Nov 01:13:47 01:17:39 37° 294° (WNW) 01:21:30 145.865
POLYITAN 1 22 Nov 01:26:34 01:30:06 27° 297° (WNW) 01:33:38 437.675
SO-50 22 Nov 01:29:06 01:32:24 19° 350° (N) 01:35:44 436.795
DX 1 22 Nov 01:38:50 01:42:44 32° 264° (W) 01:46:42 434.975-435.025
BEESAT 22 Nov 01:49:18 01:53:50 44° 66° (ENE) 01:58:22 436.000
QB50P2 22 Nov 01:50:33 01:53:15 17° 303° (WNW) 01:55:55 145.880/145.840
BUGSAT 1 22 Nov 01:53:22 01:57:21 56° 290° (WNW) 02:01:17 437.445
ISS 22 Nov 01:58:07 02:01:13 39° 203° (SSW) 02:04:17 437.550
ITUPSAT 1 22 Nov 01:59:13 02:03:52 52° 67° (ENE) 02:08:31 437.325
MOZHAYETS 4 22 Nov 02:06:49 02:11:22 72° 73° (ENE) 02:15:56
Oscar 19 22 Nov 02:12:53 02:18:04 81° 289° (WNW) 02:23:14 437.125/150
CUBESAT XI-V 22 Nov 02:20:25 02:24:23 29° 62° (ENE) 02:28:23 437.345
UKube-1 22 Nov 02:20:43 02:23:57 20° 268° (W) 02:27:12 .
KKS-1 22 Nov 02:22:03 02:23:14 11° 49° (NE) 02:24:26 437.445
ITAMSAT 1 22 Nov 02:28:58 02:31:23 13° 85° (E) 02:33:48 435.822/435.867
PCSat 22 Nov 02:29:09 02:34:06 34° 326° (NW) 02:39:04 145.827
RS-15 22 Nov 02:32:01 02:44:11 81° 44° (NE) 02:55:39 29.354- 29.394
BEESAT 3 22 Nov 02:33:55 02:37:24 29° 120° (ESE) 02:40:54 437.485
Gurwin Techsat 1B 22 Nov 02:42:26 02:47:45 66° 290° (WNW) 02:53:00 435.225
nSIGHT-1 22 Nov 02:49:06 02:51:24 18° 215° (SW) 02:53:40 .
M-CUBED/EXP-1 PRIME 22 Nov 03:01:36 03:06:00 52° 106° (ESE) 03:10:31 437.505
SO-50 22 Nov 03:10:51 03:14:22 21° 15° (NNE) 03:17:55 436.795
AO-7 22 Nov 03:18:29 03:26:28 46° 100° (E) 03:34:25 .
AO-85 22 Nov 03:25:14 03:27:04 13° 111° (ESE) 03:28:57 145.980
BEESAT 22 Nov 03:27:34 03:31:45 30° 265° (W) 03:35:58 436.000
ISS 22 Nov 03:36:03 03:37:01 11° 221° (SW) 03:37:58 437.550
ITUPSAT 1 22 Nov 03:38:00 03:41:58 25° 267° (W) 03:45:56 437.325
MOZHAYETS 4 22 Nov 03:46:00 03:49:01 17° 271° (W) 03:52:04
BEESAT 2 22 Nov 03:46:18 03:50:09 44° 125° (SE) 03:54:02 435.950
Oscar 19 22 Nov 03:53:22 03:56:40 17° 308° (NW) 03:59:57 437.125/150
KKS-1 22 Nov 03:54:29 03:58:53 57° 69° (ENE) 04:03:18 437.445
YUBILEINY 22 Nov 03:54:48 04:01:07 23° 74° (ENE) 04:07:28 435.215
CUBESAT XI-V 22 Nov 03:57:12 04:01:36 44° 262° (W) 04:06:03 437.345
ITAMSAT 1 22 Nov 04:06:32 04:11:47 75° 105° (ESE) 04:16:59 435.822/435.867
BEESAT 3 22 Nov 04:10:53 04:14:47 48° 320° (NW) 04:18:42 437.485
PCSat 22 Nov 04:15:22 04:19:06 18° 351° (N) 04:22:50 145.827
STARS 22 Nov 04:17:08 04:21:19 42° 66° (ENE) 04:25:31 437.465
Gurwin Techsat 1B 22 Nov 04:23:50 04:26:46 15° 311° (NW) 04:29:41 435.225
DOVE 4 22 Nov 04:29:26 04:34:06 31° 92° (E) 04:38:34 437.250
M-CUBED/EXP-1 PRIME 22 Nov 04:36:21 04:40:10 28° 304° (NW) 04:44:04 437.505
RS-15 22 Nov 04:45:05 04:55:44 41° 250° (WSW) 05:05:55 29.354- 29.394
SO-50 22 Nov 04:51:18 04:55:48 50° 38° (NE) 05:00:21 436.795
AO-85 22 Nov 05:02:46 05:06:43 85° 131° (SE) 05:10:55 145.980
STRAND 1 22 Nov 05:08:03 05:12:05 23° 56° (ENE) 05:16:05 437.568
AO-7 22 Nov 05:11:22 05:19:28 57° 302° (WNW) 05:27:33 .
KAITUO 1B 22 Nov 05:16:41 05:18:11 12° 87° (E) 05:19:41 145.475/437.950
BEESAT 2 22 Nov 05:24:13 05:27:59 36° 325° (NW) 05:31:47 435.950
XW-2D 22 Nov 05:32:10 05:35:16 23° 93° (E) 05:38:21 145.860 - 145.880
KKS-1 22 Nov 05:32:20 05:35:46 21° 268° (W) 05:39:14 437.445
FO-29 22 Nov 05:38:02 05:43:17 22° 46° (NE) 05:48:50 435.910
CUTE-I 22 Nov 05:43:31 05:48:08 28° 93° (E) 05:52:42 437.470
ITAMSAT 1 22 Nov 05:46:45 05:50:45 23° 305° (NW) 05:54:45 435.822/435.867
XW-2B 22 Nov 05:46:48 05:50:13 31° 95° (E) 05:53:38 145.730 - 145.750
YUBILEINY 22 Nov 05:47:50 05:56:36 83° 98° (E) 06:05:29 435.215
BEESAT 3 22 Nov 05:50:25 05:53:12 18° 343° (NNW) 05:55:58 437.485
STARS 22 Nov 05:53:58 05:57:47 28° 265° (W) 06:01:38 437.465
NUDT-PHONESAT 22 Nov 05:58:43 06:02:01 29° 96° (E) 06:05:18 437.300
PCSat 22 Nov 06:00:25 06:04:29 21° 17° (NNE) 06:08:32 145.827
DOVE 4 22 Nov 06:06:55 06:11:58 48° 293° (WNW) 06:16:48 437.250
XW-2C 22 Nov 06:12:15 06:16:01 57° 100° (E) 06:19:47 145.795 - 145.815
LilacSat-2 22 Nov 06:15:06 06:18:57 66° 102° (ESE) 06:22:47 437.200
XW-2F 22 Nov 06:22:15 06:26:03 69° 103° (ESE) 06:29:51 145.980 - 146.000
HO-68 22 Nov 06:24:54 06:31:11 31° 93° (E) 06:37:25 435.675
SO-50 22 Nov 06:31:57 06:36:11 36° 238° (WSW) 06:40:28 436.795
CUTE 1.7 + AOD 2 22 Nov 06:32:15 06:35:54 27° 93° (E) 06:39:33 437.475
AO-85 22 Nov 06:44:14 06:47:38 25° 335° (NNW) 06:51:15 145.980
STRAND 1 22 Nov 06:45:40 06:50:49 71° 257° (WSW) 06:55:59 437.568
KAITUO 1B 22 Nov 06:48:54 06:52:40 78° 286° (WNW) 06:56:27 145.475/437.950
UWE-3 22 Nov 06:55:47 06:58:30 17° 89° (E) 07:01:13 435.000/436.395/437.385
SEEDS 22 Nov 07:01:09 07:05:00 32° 95° (E) 07:08:51 437.485
BEESAT 2 22 Nov 07:04:10 07:06:46 16° 348° (NNW) 07:09:22 435.950
AO-7 22 Nov 07:04:53 07:10:38 21° 326° (NW) 07:16:24 .
XW-2D 22 Nov 07:06:00 07:09:33 38° 292° (WNW) 07:13:07 145.860 - 145.880
AAUSAT CUBESAT 2 22 Nov 07:06:10 07:09:07 18° 90° (E) 07:12:03 437.432
XW-2A 22 Nov 07:09:42 07:12:03 17° 92° (E) 07:14:24 145.665 - 145.685
FO-29 22 Nov 07:20:11 07:27:02 71° 69° (ENE) 07:34:40 435.910
XW-2B 22 Nov 07:21:02 07:24:21 29° 294° (WNW) 07:27:41 145.730 - 145.750
CUTE-I 22 Nov 07:23:14 07:28:30 56° 293° (WNW) 07:33:43 437.470
BEESAT 3 22 Nov 07:29:52 07:32:10 15° 6° (N) 07:34:27 437.485
NUDT-PHONESAT 22 Nov 07:32:36 07:35:51 29° 294° (WNW) 07:39:05 437.300
AO-73 22 Nov 07:34:38 07:37:44 20° 91° (E) 07:40:49 145.935
CUBEBUG 2 22 Nov 07:36:03 07:40:15 65° 101° (ESE) 07:44:22 437.445
PCSat 22 Nov 07:43:53 07:49:10 48° 41° (NE) 07:54:25 145.827
UNISAT 6 22 Nov 07:44:40 07:48:16 24° 61° (ENE) 07:51:50 437.425
DOVE 4 22 Nov 07:46:56 07:48:25 11° 314° (NW) 07:49:53 437.250
YUBILEINY 22 Nov 07:46:59 07:54:32 31° 303° (WNW) 08:02:10 435.215
XW-2C 22 Nov 07:47:15 07:49:50 18° 300° (WNW) 07:52:24 145.795 - 145.815
TIGRISAT 22 Nov 07:48:47 07:52:23 24° 61° (ENE) 07:55:57 435.000
Oscar 11 22 Nov 07:50:04 07:53:22 21° 91° (E) 07:56:40 .
LilacSat-2 22 Nov 07:50:24 07:52:47 16° 301° (WNW) 07:55:10 437.200
XW-2F 22 Nov 07:57:28 07:59:42 15° 301° (WNW) 08:01:58 145.980 - 146.000
CUTE 1.7 + AOD 2 22 Nov 08:07:51 08:11:52 40° 292° (WNW) 08:15:52 437.475
HO-68 22 Nov 08:12:19 08:19:29 70° 294° (WNW) 08:26:36 435.675
ZACube-1 22 Nov 08:19:37 08:23:43 58° 100° (E) 08:27:50 437.345
KAITUO 1B 22 Nov 08:25:00 08:25:59 11° 305° (NW) 08:26:58 145.475/437.950
AO-85 22 Nov 08:26:41 08:29:26 16° 360° (N) 08:32:18 145.980
STRAND 1 22 Nov 08:28:55 08:30:57 12° 276° (W) 08:33:00 437.568
PRISM 22 Nov 08:29:02 08:32:21 24° 61° (ENE) 08:35:41 437.425
UWE-3 22 Nov 08:31:17 08:35:24 62° 288° (WNW) 08:39:29 435.000/436.395/437.385
SEEDS 22 Nov 08:36:51 08:40:41 33° 294° (WNW) 08:44:30 437.485
AAUSAT CUBESAT 2 22 Nov 08:40:48 08:44:56 59° 289° (WNW) 08:49:03 437.432
XW-2A 22 Nov 08:41:45 08:44:56 40° 290° (WNW) 08:48:07 145.665 - 145.685
BEESAT 2 22 Nov 08:43:21 08:45:58 16° 12° (NNE) 08:48:33 435.950
